Belen, NM

5:24 PM MDT on October 22, 2017 (GMT -0600)
Belen

Weather History for KE80 - October, 2011

Change the Weather History Date:

Tuesday, October 11, 2011

  Actual Average (KABQ) Record (KABQ)
Temperature  
Mean Temperature 61 °F -  
Max Temperature 76 °F 74 °F 88 °F (1979)
Min Temperature 46 °F 45 °F 24 °F (1913)
Degree Days  
Heating Degree Days 4    
Growing Degree Days 11 (Base 50)    
Moisture  
Dew Point 33 °F    
Average Humidity 42    
Maximum Humidity 74    
Minimum Humidity 14    
Precipitation  
Precipitation 0.00 in - - ()
Sea Level Pressure  
Sea Level Pressure 30.00 in    
Wind  
Wind Speed 4 mph (NW)    
Max Wind Speed 20 mph    
Max Gust Speed 25 mph    
Visibility 10 miles    
Events      
Averages and records for this station are not official NWS values.
T = Trace of Precipitation, MM = Missing Value Source: NWS Daily Summary

Daily Weather History Graph

Daily Weather History Graph

Search for Another Location

Airport or City:

Trip Planner

Search our weather history database for the weather conditions in past years. The results will help you decide how hot, cold, wet, or windy it might be!

Date:

Astronomy

Oct. 11, 2011 Rise Set
Actual Time 7:09 AM MDT 6:38 PM MDT
Civil Twilight 6:44 AM MDT 7:03 PM MDT
Nautical Twilight 6:15 AM MDT 7:32 PM MDT
Astronomical Twilight 5:45 AM MDT 8:01 PM MDT
Moon 6:13 PM MDT (10/11) 6:48 AM MDT (10/11)
Length of Visible Light 12h 19m
Length of Day
11h 28m
Full, 100% of the Moon is Illuminated
Oct 11
Full
Oct 11
Full
Oct 19
Last Quarter
Oct 26
New
Nov 2
First Quarter

Hourly Weather History & Observations

Time (MDT) Temp. Windchill Dew Point Humidity Pressure Visibility Wind Dir Wind Speed Gust Speed Precip Events Conditions
12:15 AM 51.4 °F - 37.2 °F 58% 30.02 in 10.0 mi Calm Calm - N/A   Clear
12:55 AM 50.7 °F - 38.3 °F 62% 30.02 in 10.0 mi Calm Calm - N/A   Clear
1:15 AM 49.5 °F - 38.3 °F 65% 30.02 in 10.0 mi WNW 4.6 mph - N/A   Clear
1:35 AM 48.4 °F - 37.4 °F 66% 30.02 in 10.0 mi NW 6.9 mph - N/A   Clear
1:55 AM 48.9 °F - 36.5 °F 62% 30.02 in 10.0 mi NW 4.6 mph - N/A   Clear
2:35 AM 47.3 °F - 37.6 °F 69% 30.02 in 10.0 mi North 3.5 mph - N/A   Clear
2:55 AM 46.6 °F - 37.9 °F 72% 30.01 in 10.0 mi NNE 4.6 mph - N/A   Clear
3:15 AM 48.4 °F - 37.4 °F 66% 30.01 in 10.0 mi NNE 5.8 mph - N/A   Clear
3:35 AM 48.9 °F - 37.6 °F 65% 30.01 in 10.0 mi NNE 5.8 mph - N/A   Clear
4:15 AM 46.0 °F 43.1 °F 38.1 °F 74% 30.02 in 10.0 mi North 5.8 mph - N/A   Clear
4:35 AM 46.6 °F - 37.6 °F 71% 30.02 in 10.0 mi Calm Calm - N/A   Clear
4:55 AM 47.1 °F - 37.6 °F 69% 30.02 in 10.0 mi North 4.6 mph - N/A   Clear
5:15 AM 47.8 °F - 38.3 °F 70% 30.02 in 10.0 mi Calm Calm - N/A   Clear
5:35 AM 48.4 °F - 38.1 °F 68% 30.01 in 10.0 mi Calm Calm - N/A   Clear
5:55 AM 48.6 °F - 37.9 °F 67% 30.01 in 10.0 mi Calm Calm - N/A   Clear
6:35 AM 48.6 °F - 39.0 °F 70% 30.02 in 10.0 mi Calm Calm - N/A   Clear
6:55 AM 48.2 °F - 38.7 °F 70% 30.02 in 10.0 mi Calm Calm - N/A   Clear
7:15 AM 48.7 °F - 36.7 °F 63% 30.02 in 10.0 mi Calm Calm - N/A   Clear
7:35 AM 47.7 °F - 39.4 °F 73% 30.02 in 10.0 mi Calm Calm - N/A   Clear
7:55 AM 48.2 °F - 40.1 °F 74% 30.03 in 10.0 mi SSW 4.6 mph - N/A   Clear
8:15 AM 50.0 °F - 39.2 °F 66% 30.04 in 10.0 mi SSW 3.5 mph - N/A   Clear
8:55 AM 52.9 °F - 37.6 °F 56% 30.05 in 10.0 mi Calm Calm - N/A   Scattered Clouds
9:15 AM 54.0 °F - 36.9 °F 52% 30.05 in 10.0 mi Calm Calm - N/A   Scattered Clouds
9:35 AM 55.4 °F - 36.5 °F 49% 30.05 in 10.0 mi Calm Calm - N/A   Clear
9:55 AM 57.0 °F - 36.3 °F 46% 30.05 in 10.0 mi Calm Calm - N/A   Clear
10:15 AM 59.2 °F - 35.4 °F 41% 30.05 in 10.0 mi Calm Calm - N/A   Clear
10:35 AM 61.0 °F - 35.6 °F 39% 30.05 in 10.0 mi SE 3.5 mph - N/A   Clear
10:55 AM 61.7 °F - 36.9 °F 40% 30.05 in 10.0 mi SE 3.5 mph - N/A   Clear
11:15 AM 63.0 °F - 35.6 °F 36% 30.04 in 10.0 mi Calm Calm - N/A   Clear
11:35 AM 64.8 °F - 33.8 °F 32% 30.03 in 10.0 mi Calm Calm - N/A   Clear
11:55 AM 66.2 °F - 33.1 °F 29% 30.02 in 10.0 mi Calm Calm - N/A   Clear
12:15 PM 67.3 °F - 32.2 °F 27% 30.02 in 10.0 mi SSE 4.6 mph - N/A   Clear
12:35 PM 68.9 °F - 31.1 °F 25% 30.01 in 10.0 mi WSW 5.8 mph - N/A   Clear
12:55 PM 70.3 °F - 29.7 °F 22% 30.00 in 10.0 mi WSW 5.8 mph - N/A   Clear
1:15 PM 71.1 °F - 28.6 °F 21% 29.98 in 10.0 mi Calm Calm - N/A   Clear
1:35 PM 72.1 °F - 27.9 °F 19% 29.98 in 10.0 mi WNW 8.1 mph - N/A   Clear
2:15 PM 74.8 °F - 24.6 °F 15% 29.96 in 10.0 mi WNW 17.3 mph - N/A   Clear
2:35 PM 75.0 °F - 25.0 °F 16% 29.95 in 10.0 mi West 18.4 mph 23.0 mph N/A   Clear
2:55 PM 75.9 °F - 24.3 °F 15% 29.95 in 10.0 mi WNW 13.8 mph 25.3 mph N/A   Clear
3:15 PM 76.1 °F - 24.4 °F 15% 29.95 in 10.0 mi WNW 13.8 mph 23.0 mph N/A   Clear
3:35 PM 75.9 °F - 25.0 °F 15% 29.95 in 10.0 mi West 12.7 mph 19.6 mph N/A   Clear
3:55 PM 76.1 °F - 24.6 °F 15% 29.94 in 10.0 mi WNW 16.1 mph 24.2 mph N/A   Clear
4:15 PM 76.3 °F - 23.9 °F 14% 29.94 in 10.0 mi WNW 11.5 mph 23.0 mph N/A   Clear
4:55 PM 76.1 °F - 23.2 °F 14% 29.93 in 10.0 mi NW 19.6 mph 23.0 mph N/A   Clear
5:15 PM 75.7 °F - 22.8 °F 14% 29.94 in 10.0 mi West 15.0 mph - N/A   Clear
5:35 PM 75.4 °F - 23.4 °F 14% 29.94 in 10.0 mi WNW 16.1 mph 21.9 mph N/A   Clear
5:55 PM 74.5 °F - 23.7 °F 15% 29.94 in 10.0 mi NW 12.7 mph - N/A   Clear
6:15 PM 73.2 °F - 24.4 °F 16% 29.94 in 10.0 mi NW 5.8 mph - N/A   Clear
6:35 PM 70.7 °F - 27.3 °F 20% 29.95 in 10.0 mi NW 5.8 mph - N/A   Clear
6:55 PM 67.1 °F - 29.3 °F 24% 29.95 in 10.0 mi WNW 6.9 mph - N/A   Clear
7:15 PM 64.6 °F - 30.6 °F 28% 29.95 in 10.0 mi WNW 5.8 mph - N/A   Clear
7:35 PM 63.1 °F - 30.6 °F 29% 29.97 in 10.0 mi North 8.1 mph - N/A   Clear
7:55 PM 64.9 °F - 28.4 °F 25% 29.98 in 10.0 mi North 9.2 mph 19.6 mph N/A   Clear
8:15 PM 64.6 °F - 28.6 °F 26% 30.00 in 10.0 mi North 8.1 mph - N/A   Clear
8:35 PM 61.7 °F - 30.2 °F 30% 30.01 in 10.0 mi North 4.6 mph - N/A   Clear
8:55 PM 60.1 °F - 30.9 °F 33% 30.01 in 10.0 mi NNW 8.1 mph - N/A   Clear
9:35 PM 59.7 °F - 31.3 °F 34% 30.02 in 10.0 mi North 5.8 mph - N/A   Clear
9:55 PM 59.2 °F - 31.6 °F 35% 30.04 in 10.0 mi NW 3.5 mph - N/A   Clear
10:15 PM 57.6 °F - 32.5 °F 39% 30.04 in 10.0 mi NNW 8.1 mph - N/A   Clear
10:35 PM 56.7 °F - 33.1 °F 41% 30.04 in 10.0 mi NW 10.4 mph - N/A   Clear
10:55 PM 58.6 °F - 31.8 °F 36% 30.05 in 10.0 mi NNW 9.2 mph - N/A   Clear
11:15 PM 57.4 °F - 32.4 °F 39% 30.06 in 10.0 mi NW 5.8 mph - N/A   Clear
11:35 PM 55.9 °F - 32.9 °F 42% 30.06 in 10.0 mi NW 6.9 mph - N/A   Clear
11:55 PM 57.0 °F - 32.7 °F 40% 30.07 in 10.0 mi NNE 3.5 mph - N/A   Clear